Regional Weather Roundup
Issued by NWS Newport/Morehead, NC

Current Version | Previous Version | Text Only | Print | Product List | Glossary On
Versions: 1 2 3 4 5 6 7 8 9 10 11 12 13 14 15 16 17 18 19 20 21 22 23 24 25 26 27 28 29 30 31 32 33 34 35 36 37 38 39 40 41 42 43 44 45 46 47 48 49 50
000 ASUS42 KMHX 231726 RWRMHX WEATHER ROUNDUP FOR EASTERN NORTH CAROLINA NATIONAL WEATHER SERVICE NEWPORT/MOREHEAD CITY NC 100 PM EDT FRI JUN 23 2017 NOTE: "FAIR" INDICATES FEW OR NO CLOUDS BELOW 12,000 FEET WITH NO SIGNIFICANT WEATHER AND/OR OBSTRUCTIONS TO VISIBILITY NCZ015>017-031-032-045>047-102-103-231800- NORTH COAST CITY SKY/WX TMP DP RH WIND PRES REMARKS EDENTON PTSUNNY 85 76 74 SW12 29.96F ELIZABETH CITY MOSUNNY 83 76 79 SW16G25 29.94F KITTY HAWK CLOUDY 84 74 70 CALM 29.95F MANTEO CLOUDY 83 74 73 W13 29.97F $$ NCZ045>047-081-094-103-104-231800- CENTRAL COAST CITY SKY/WX TMP DP RH WIND PRES REMARKS FRISCO MOSUNNY 85 77 77 SW13G18 30.01F $$ NCZ095-097-098-100-101-231800- SOUTHERN COAST CITY SKY/WX TMP DP RH WIND PRES REMARKS BEAUFORT CLOUDY 83 79 88 SW17 30.01F CEDAR ISLAND NOT AVBL JACKSONVILLE NOT AVBL PINEY ISLAND CLOUDY N/A N/A N/A SW14G24 29.99F WILMINGTON CLOUDY 86 75 69 SW12 30.01F $$ NCZ011>013-027>030-043-044-078>080-089-090>093-098-231800- COASTAL PLAIN CITY SKY/WX TMP DP RH WIND PRES REMARKS AHOSKIE N/A 82 76 82 SW5 29.93F CLINTON MOSUNNY 86 76 73 W13 29.99F ELIZABETHTOWN NOT AVBL GOLDSBORO PTSUNNY 88 79 74 SW16G22 29.96F HX 102 GREENVILLE PTSUNNY 88 75 66 SW15 29.98F HAVELOCK CLOUDY 87 76 69 SW13 30.00F KENANSVILLE CLOUDY 88 75 66 SW10G17 29.98F KINSTON PTSUNNY 88 75 66 SW9G21 29.99F NEW BERN CLOUDY 86 75 69 SW10G20 30.00F RICHLANDS PTSUNNY 87 76 69 SW12 30.00F ROCKY MOUNT CLOUDY 86 76 71 SW17G24 29.95F WASHINGTON CLOUDY 86 75 70 SW13G20 29.97F WHITEVILLE CLOUDY 87 75 68 SW6 30.00F $$ AMZ130-135-150-152-154-156-158-170-250-252-270-ANZ085-086-088-633-658-670-231800- MARINE OBSERVATIONS STATION/POSITION TIME TEMP WIND PRES WAVE SWELL AIR SEA DIR/SP/G HT/PER HT/PER (UTC) (F) (DEG/KT/KT) (MB) (FT/S) (FT/S) CHESAPEAKE LIGHT NOT AVBL 64 E VA BEACH 1650 74 73 200/ 12/ 14 1014.4 3/ 8 2/ 8 DUCK 1700 82 64 210/ 13/ 17 1013.5 2 E DUCK NOT AVBL OREGON INLET 1700 81 81 190/ 16/ 20 1014.9 13E OREGON INLT 1648 72 N/A 3/ 8 2/ 8 HATTERAS CG 1700 82 79 220/ 11/ 14 1015.7 DIAMOND BUOY 1650 80 80 220/ 17/ 19 1016.2 3/ 9 2/ 9 CAPE LOOKOUT 1700 81 210/ 12/ 15 1016.1 BEAUFORT LAB 1700 81 78 210/ 11/ 17 1015.5 30 SE NEW RVR IN 1708 80 81 240/ 16/ 19 1016.9 30 SE NEW RVR IN 1713 81 N/A 4/ 8 27 SE WRIGHTSVLE 1708 80 80 220/ 14/ 19 1016.3 5 SE WRIGHTSVLE 1708 80 79 220/ 17/ 23 1016.0 225 S CAPE HAT 1650 80 82 220/ 12/ 14 1019.7 4/ 9 3/ 9 41 SE CHARLESTON 1710 81 81 220/ 16/ 17 1017.5 $$

USA.gov is the U.S. government's official web portal to all federal, state and local government web resources and services.